Simultaneous Nadir Overpasses (SNOs) Predictions

Prediction of SNOs between AQUA and LANDSAT-8 Satellite Orbit:

Table of predicted SNOs for the next 14.0 days since TLE Epoch: 12/14/2024
Index Date (AQUA) Time (AQUA) Lat,Lon (AQUA) SZA (AQUA ) Date (LANDSAT-8) Time (LANDSAT-8) Lat,Lon (LANDSAT-8) SZA (LANDSAT-8 ) Distance(km) Time Diff (sec)
1 12/19/2024 20:58:52 -73.91, 51.23 82.66 12/19/2024 20:57:46 -73.90, 48.46 82.74 85.26 66
2 12/19/2024 21:48:16 74.09,-141.53 97.51 12/19/2024 21:47:08 74.07,-143.51 97.44 60.35 68
3 12/19/2024 22:37:41 -74.41, 25.37 82.19 12/19/2024 22:36:29 -74.41, 24.94 82.20 13.06 72
4 12/19/2024 23:27:03 74.49,-167.16 97.89 12/19/2024 23:25:53 74.48,-167.25 97.88 2.80 70
5 12/20/2024 00:16:22 -74.50, 0.49 82.10 12/20/2024 00:15:20 -74.52, 0.47 82.09 2.25 62
6 12/20/2024 01:05:43 74.53, 168.08 97.93 12/20/2024 01:04:45 74.54, 168.16 97.94 2.72 58
7 12/20/2024 01:55:02 -74.54, -24.28 82.06 12/20/2024 01:54:13 -74.52, -24.24 82.08 2.19 49
8 12/20/2024 02:44:22 74.52, 143.44 97.92 12/20/2024 02:43:38 74.54, 143.45 97.94 2.67 44
9 12/20/2024 03:33:41 -74.53, -48.91 82.07 12/20/2024 03:33:06 -74.53, -48.95 82.08 1.14 35
10 12/20/2024 04:23:02 74.56, 118.68 97.96 12/20/2024 04:22:31 74.55, 118.74 97.95 2.33 31
11 12/20/2024 05:12:20 -74.52, -73.55 82.08 12/20/2024 05:11:59 -74.53, -73.66 82.07 3.52 21
12 12/20/2024 06:01:41 74.55, 94.04 97.95 12/20/2024 06:01:24 74.55, 94.03 97.95 0.42 17
13 12/20/2024 06:51:00 -74.56, -98.31 82.04 12/20/2024 06:50:51 -74.59, -98.25 82.02 3.36 9
14 12/20/2024 07:40:20 74.54, 69.41 97.94 12/20/2024 07:40:17 74.55, 69.32 97.96 3.06 3
15 12/20/2024 08:29:40 -74.60,-123.08 82.00 12/20/2024 08:29:44 -74.59,-122.96 82.01 3.76 4
16 12/20/2024 09:19:00 74.58, 44.64 97.98 12/20/2024 09:19:10 74.56, 44.61 97.96 2.81 10
17 12/20/2024 10:08:19 -74.59,-147.71 82.01 12/20/2024 10:08:37 -74.59,-147.67 82.01 1.30 18
18 12/20/2024 10:57:39 74.57, 20.00 97.97 12/20/2024 10:58:03 74.56, 19.89 97.96 3.46 24
19 12/20/2024 11:46:58 -74.58,-172.35 82.02 12/20/2024 11:47:30 -74.60,-172.38 82.00 1.86 32
20 12/20/2024 12:36:19 74.61, -4.76 98.01 12/20/2024 12:36:55 74.62, -4.69 98.02 2.06 36
21 12/20/2024 13:25:38 -74.62, 162.88 81.98 12/20/2024 13:26:23 -74.60, 162.91 82.00 2.61 45
22 12/20/2024 14:14:58 74.60, -29.40 98.01 12/20/2024 14:15:48 74.62, -29.40 98.03 1.89 50
23 12/20/2024 15:04:17 -74.62, 138.25 81.99 12/20/2024 15:05:16 -74.61, 138.19 81.99 1.86 59
24 12/20/2024 15:53:38 74.65, -54.16 98.04 12/20/2024 15:54:41 74.62, -54.12 98.03 2.71 63
25 12/20/2024 16:42:57 -74.66, 113.48 81.95 12/20/2024 16:44:08 -74.66, 113.61 81.94 3.79 71
26 12/20/2024 17:32:21 74.84, -79.32 98.23 12/20/2024 17:33:31 74.78, -78.45 98.20 26.39 70
27 12/20/2024 18:21:46 -75.15, 87.51 81.48 12/20/2024 18:22:52 -75.12, 90.07 81.45 72.88 66



Historial Predications of SNOs between AQUA and LANDSAT-8
